VK4ZPK-13 Weather Reports


Display with metric or nautical units.
time (UTC)temp
F
wind
direction
speed
MPH
gust
MPH
rain 1hr
in
rain 24hr
in
rain mn
in
humidity
%
barometer
mb
20260506001226 74 138 1.0 4.0 0.00 0.00 0.00 94 1014.0
20260505234226 73 136 2.0 6.0 0.00 0.00 0.00 95 1013.8
20260505231226 72 138 1.0 4.0 0.00 0.00 0.00 96 1013.8
20260505224226 70 123 1.0 3.0 0.00 0.00 0.00 97 1013.7
20260505221226 70 154 3.0 6.0 0.00 0.00 0.00 96 1013.5
20260505214226 68 152 2.0 6.0 0.00 0.00 0.00 98 1013.4
20260505211226 67 150 2.0 4.0 0.00 0.00 0.00 97 1013.1
20260505204226 67 166 3.0 6.0 0.00 0.00 0.00 97 1012.9
20260505201226 67 166 3.0 6.0 0.00 0.00 0.00 97 1012.5
20260505194226 67 150 3.0 5.0 0.00 0.00 0.00 97 1012.2
20260505191226 67 153 3.0 5.0 0.00 0.00 0.00 96 1012.2
20260505184226 67 160 3.0 5.0 0.00 0.00 0.00 96 1011.8
20260505181226 67 158 2.0 3.0 0.00 0.00 0.00 96 1012.2
20260505174226 68 171 1.0 4.0 0.00 0.00 0.00 96 1012.4
20260505171226 68 140 1.0 3.0 0.00 0.00 0.00 96 1012.3
20260505164226 68 193 1.0 4.0 0.00 0.00 0.00 95 1012.7
20260505161226 68 160 1.0 3.0 0.00 0.00 0.00 95 1012.7
20260505151226 68 163 1.0 3.0 0.00 0.00 0.00 95 1013.2
20260505124226 70 184 1.0 3.0 0.00 0.00 0.00 92 1014.1
20260505121226 71 141 1.0 3.0 0.00 0.00 0.00 93 1013.8
20260505114226 71 110 1.0 1.0 0.00 0.00 0.00 92 1013.8
20260505111226 71 109 1.0 2.0 0.00 0.00 0.00 91 1013.8
20260505101226 71 122 1.0 2.0 0.00 0.00 0.00 90 1013.7
20260505094226 72 124 1.0 3.0 0.00 0.00 0.00 89 1013.6
20260505091226 72 135 1.0 4.0 0.00 0.00 0.00 89 1013.2
20260505084226 72 127 1.0 3.0 0.00 0.00 0.00 88 1013.2
20260505081226 73 135 2.0 5.0 0.00 0.00 0.00 87 1012.7
20260505074226 73 133 2.0 4.0 0.00 0.00 0.00 86 1012.5
20260505071226 74 122 1.0 3.0 0.00 0.00 0.00 85 1012.5
20260505064226 75 124 1.0 4.0 0.00 0.00 0.00 84 1012.0
20260505061226 75 139 1.0 4.0 0.00 0.00 0.00 84 1012.0
20260505054226 76 120 2.0 6.0 0.00 0.00 0.00 82 1011.7
20260505051226 77 112 3.0 6.0 0.00 0.00 0.00 80 1011.7
20260505041226 78 127 2.0 6.0 0.00 0.00 0.00 78 1011.6
20260505034226 78 133 2.0 5.0 0.00 0.00 0.00 78 1011.8
20260505031226 79 118 3.0 8.0 0.00 0.00 0.00 76 1011.9
20260505024226 79 120 3.0 7.0 0.00 0.00 0.00 77 1012.0
20260505021226 79 112 3.0 7.0 0.00 0.00 0.00 76 1012.3
20260505014226 79 115 2.0 7.0 0.00 0.00 0.00 78 1012.5
20260505011226 79 119 3.0 8.0 0.00 0.00 0.00 79 1013.1
20260505004226 77 136 3.0 5.0 0.00 0.00 0.00 80 1013.5